WXForecasting.com
Enter your "Place, State", US Zip Code or ICAO:       Weather Directory
MI Forecast MI Discussion MI Public Info MI Climate Data MI Fire Weather MI Summary MI Hourly
Michigan Hourly Weather Roundup:
000
ASUS43 KDTX 292110
RWRMI
MICHIGAN HOURLY REGIONAL WEATHER ROUNDUP
NATIONAL WEATHER SERVICE DETROIT/PONTIAC MI
500 PM EDT SAT APR 29 2017

NOTE: "FAIR" INDICATES FEW OR NO CLOUDS BELOW 12,000 FEET WITH NO
SIGNIFICANT WEATHER AND/OR OBSTRUCTION TO VISIBILITY.

MIZ047>049-052>055-059>063-066>070-074>076-081>083-292200-
SOUTHEAST LOWER MICHIGAN

CITY           SKY/WX    TMP DP  RH WIND       PRES   REMARKS
ADRIAN         CLOUDY    47  43  86 SE10      30.18F
ALMA           CLOUDY    53  35  50 E9        30.18F
ANN ARBOR      CLOUDY    50  39  66 E12       30.18R
BAD AXE        CLOUDY    44  32  64 NE10      30.25F
CARO           CLOUDY    50  33  52 N7        30.20F
DETROIT CITY   CLOUDY    47  35  63 NE10      30.21R
DETROIT        CLOUDY    49  36  61 NE13      30.17F
FLINT          CLOUDY    53  35  50 NE15      30.18F
GROSSE ILE     CLOUDY    45  37  73 E14       30.18S
HILLSDALE      CLOUDY    46  41  81 E6        30.17R
HOWELL         CLOUDY    52  36  53 NE10      30.14F

CITY           SKY/WX    TMP DP  RH WIND       PRES   REMARKS
JACKSON        CLOUDY    51  40  65 E10       30.16S
LAMBERTVILLE   CLOUDY    46  41  83 E8G16     30.19S
LANSING        CLOUDY    53  34  48 NE14      30.16F
LAPEER         CLOUDY    50  34  53 NE7G21    30.20F
MASON          CLOUDY    51  40  64 NE7       30.17R
MONROE         CLOUDY    46  39  79 E8        30.17F
MT. CLEMENS    CLOUDY    47  34  61 NE15      30.18F
PONTIAC        CLOUDY    49  37  63 NE12      30.18S
PORT HOPE        N/A     41  32  70 NE10      30.25F
PORT HURON     CLOUDY    43  30  61 N12G17    30.22F
TRI CITIES     CLOUDY    51  33  50 NE15      30.22F
MIDLAND        FAIR      51  34  51 NE10      30.21F
TROY           CLOUDY    49  33  53 NE10G16   30.22R
SAGINAW HB     CLOUDY    52  28  40 NE13      30.21F
$$
MIZ043>046-050>051-056>058-064>065-071>073-077>080-292200-
SOUTHWEST LOWER MICHIGAN

CITY           SKY/WX    TMP DP  RH WIND       PRES   REMARKS
BATTLE CREEK   RAIN      51  42  71 SE10G17   30.18R
BENTON HARBOR  LGT RAIN  50  45  83 NE6       30.13F
BIG RAPIDS     CLOUDY    51  29  42 NE6       30.17F
COLDWATER      CLOUDY    51  45  80 E8        30.15F
FREMONT        FAIR      53  28  37 NE9       30.16F
HOLLAND        LGT RAIN  54  39  57 E10       30.16R
GRAND RAPIDS   CLOUDY    53  37  54 NE20      30.10F
IONIA          PTSUNNY   53  36  52 NE12G21   30.13F
KALAMAZOO      RAIN      50  43  77 CALM      30.18R
LUDINGTON      CLOUDY    46  35  66 N6        30.22S
MARSHALL       CLOUDY    51  41  68 E7        30.16F
MOUNT PLEASANT CLOUDY    54  30  39 N6        30.18F
MUSKEGON       CLOUDY    56  32  40 NE10      30.14F
SOUTH HAVEN    RAIN      49  45  87 CALM      30.18R
$$
MIZ016>042-292200-
NORTHERN LOWER MICHIGAN

CITY           SKY/WX    TMP DP  RH WIND       PRES   REMARKS
ALPENA         PTSUNNY   51  29  42 N10G20    30.26F
BEAVER ISLAND  PTSUNNY   51  23  33 N13G20    30.29F
BELLAIRE       CLOUDY    49  29  45 N7        30.26F
CADILLAC       CLOUDY    48  31  50 N7        30.20F
CHARLEVOIX     MOSUNNY   45  31  57 NW8       30.31F
FRANKFORT      CLOUDY    45  29  53 N7        30.26S
GAYLORD        MOSUNNY   51  25  36 N8        30.23F
GRAYLING       CLOUDY    52  27  38 NE7       30.23F
HARBOR SPRINGS MOSUNNY   51  27  39 N6        30.26F
HOUGHTON LAKE  CLOUDY    53  27  36 NE6       30.21F
MANISTEE       CLOUDY    48  26  42 NE16      30.23F
OSCODA         CLOUDY    49  31  50 NE14G21   30.23S
PELLSTON       CLOUDY    52  26  36 N9        30.27F
ROGERS CITY    CLOUDY    48  29  47 N8        30.27F
TRAVERSE CITY  CLOUDY    45  27  49 N10       30.25F
$$
MIZ007>008-015-292200-
EASTERN UPPER MICHIGAN

CITY           SKY/WX    TMP DP  RH WIND       PRES   REMARKS
KINROSS        CLOUDY    44  25  47 NW16      30.28F
MACKINAC ISLAN CLOUDY    49  28  44 N8        30.27F
NEWBERRY       CLOUDY    45  25  46 N12       30.30F
S. S. MARIE    SUNNY     46  27  47 NW14      30.28F
MUNISING         N/A     39  30  70 NW16      30.36S WCI  30
$$
MIZ004>006-011>014-085-292200-
CENTRAL UPPER MICHIGAN

CITY           SKY/WX    TMP DP  RH WIND       PRES   REMARKS
MANISTIQUE     MOSUNNY   49  23  35 N13G21    30.30F
ESCANABA       MOSUNNY   50  24  36 NE13      30.31F
MENOMINEE      MOSUNNY   46  26  45 E13       30.30F
SAWYER-GWINN   SUNNY     43  19  39 NE10      30.34F
$$
MIZ001>003-009>011-084-292200-
WESTERN UPPER MICHIGAN

CITY           SKY/WX    TMP DP  RH WIND       PRES   REMARKS
IRON MOUNTAIN  MOSUNNY   51  17  26 NE8G17    30.29S
HOUGHTON       SUNNY     46  26  45 N9        30.36R
COPPER HARBOR    N/A     39  28  64 N6        30.39R WCI  35
IRONWOOD       CLOUDY    41  23  48 N10       30.37R
$$

ABBREVIATIONS USED IN REMARKS
   TC - TEMPERATURE IN CELSIUS
  WCI - WIND CHILL INDEX
   HX - HEAT INDEX
  VSB - VISIBILITY


Powered by HAMweather
Copyright 2003 HAMweather, LLC, all rights reserved.